[[{"header":{"parameterUnit":"m.s-1","parameterCategory":1,"la1":30.2991,"la2":30.254,"lo1":-89.0895,"lo2":-89.0444,"dy":0.0017,"dx":0.0017,"nx":28,"ny":28,"refTime":"2025-08-02T21:00:00:Z","depth":0,"parameterNumber":2,"parameterNumberName":"U-component_of_WINDS"},"data":[0,0,0,0,0,0,0,0,0,0,0,0,0,0,0,0,0,0,0,0,0,0,0,0,0,0,0,0,0,0,0,0,0,0,0,0,0,0,0,0,0,0,0,0,0,0,0,0,0,0,0,0,0,0,0,0,0,0,0.519,0.5191,0,0.5278,0.5279,0.528,0.5287,0.5286,0.5285,0.5285,0.5379,0.5382,0.5386,0,0,0,0,0,0,0,0,0,0,0,0,0,0.5033,0.5036,0.519,0.5191,0.5192,0.5278,0.5279,0.528,0.5288,0.5286,0.5285,0.5284,0.5378,0.5382,0.5386,0,0,0,0,0,0,0,0,0,0,0,0,0,0.5109,0.5037,0.519,0.5206,0.5209,0.5277,0.5279,0.528,0.5288,0.5286,0.5285,0.5284,0.5377,0.5382,0.5387,0.5446,0,0,0.5402,0.5404,0,0,0,0,0,0,0,0,0.5105,0.5115,0.5203,0.5205,0.5208,0.527,0.5258,0.5336,0.5288,0.5258,0.5285,0.5283,0.5344,0.5352,0.5372,0.5451,0.5455,0.5403,0.5406,0.5408,0.5409,0,0,0,0,0,0,0,0.51,0.5111,0.5225,0.5204,0.5207,0.521,0.522,0.5273,0.5308,0.526,0.5261,0.5271,0.5345,0.5367,0.5374,0.5456,0.5402,0.5407,0.541,0.5412,0.5588,0.5589,0,0,0,0,0,0,0.5091,0.5107,0.5222,0.5228,0.5152,0.5214,0.5225,0.5252,0.5308,0.5315,0.5272,0.5271,0.5359,0.5368,0.5377,0.545,0.5408,0.5413,0.5415,0.5586,0.5588,0.559,0,0,0,0,0,0,0.5087,0.5101,0.5219,0.5167,0.5183,0.5219,0.5249,0.5254,0.5275,0.5316,0.5323,0.5287,0.5358,0.537,0.5428,0.5453,0.5415,0.542,0.5584,0.5587,0.5589,0.5596,0,0,0,0,0,0,0.5083,0.51,0.5122,0.5168,0.5185,0.5267,0.525,0.5257,0.5283,0.5283,0.5332,0.5339,0.5358,0.5421,0.5434,0.546,0.5423,0.5582,0.5585,0.5588,0.5594,0.5599,0.5603,0,0,0,0,0,0.5077,0.5122,0.5123,0.5137,0.5214,0.5269,0.5279,0.5298,0.5285,0.5309,0.5335,0.5338,0.5449,0.5427,0.5441,0.5469,0.5581,0.5585,0.5588,0.5592,0.5598,0.5603,0,0,0,0,0,0,0.508,0.5128,0.513,0.5191,0.5225,0.527,0.53,0.5304,0.5344,0.5342,0.5365,0.5376,0.5434,0.5458,0.5432,0.5529,0.5514,0.552,0.5512,0.5518,0.5522,0.5515,0.5428,0,0,0,0,0,0.5087,0.5127,0.5167,0.5217,0.5234,0.5264,0.5289,0.53,0.5338,0.5353,0.5383,0.5421,0.5464,0.5492,0.5534,0.5598,0.5608,0.5624,0.5628,0.5632,0.5637,0.5671,0.5679,0.5602,0.5602,0.5602,0,0,0.5104,0.5135,0.5159,0.5218,0.5247,0.5288,0.5276,0.5321,0.5352,0.536,0.5416,0.544,0.5484,0.5544,0.5572,0.5566,0.5661,0.5636,0.5639,0.5642,0.5676,0.5683,0.5689,0.5604,0.5604,0.5604,0,0,0.5154,0.5182,0.5226,0.5254,0.5296,0.5315,0.5325,0.5369,0.5384,0.5441,0.5448,0.5485,0.556,0.559,0.5615,0.5675,0.5679,0.5688,0.5711,0.5744,0.575,0.5756,0.5776,0.5784,0.5694,0.5694,0.5694,0,0.517,0.523,0.5248,0.5292,0.5318,0.5325,0.537,0.5397,0.5451,0.5469,0.546,0.5552,0.5582,0.5649,0.5664,0.5684,0.5697,0.5683,0.5748,0.5753,0.5759,0.5779,0.5787,0.5695,0.5695,0.5694,0.5694,0,0.5247,0.5289,0.532,0.5369,0.5399,0.5443,0.5468,0.5496,0.5505,0.5525,0.5582,0.5618,0.5667,0.5684,0.5694,0.5752,0.5746,0.5742,0.5727,0.5766,0.5786,0.5794,0.5696,0.5695,0.5695,0.5695,0,0,0.5302,0.536,0.5371,0.5393,0.5439,0.5473,0.5517,0.5563,0.5586,0.5624,0.5661,0.5723,0.5719,0.5747,0.5761,0.579,0.5834,0.5782,0.5783,0.579,0.59,0.5902,0.5911,0.5837,0.5838,0.5839,0.5896,0,0.5357,0.5435,0.5451,0.5519,0.5557,0.5565,0.5603,0.5636,0.5656,0.5693,0.5716,0.5759,0.5751,0.5767,0.5797,0.5822,0.5856,0.5819,0.5873,0.5874,0.5861,0.5921,0.5924,0.5976,0.5904,0.5905,0.5906,0,0.5432,0.5468,0.5539,0.5579,0.5596,0.563,0.5673,0.5707,0.5745,0.5758,0.5788,0.5798,0.5845,0.5827,0.5892,0.5866,0.5889,0.5905,0.5908,0.5913,0.5892,0.5928,0.5993,0.6,0.5918,0.5917,0.5916,0,0.5464,0.5531,0.5582,0.5601,0.5649,0.5672,0.5694,0.573,0.5756,0.5794,0.5811,0.5855,0.5878,0.5912,0.5934,0.5919,0.5997,0.5981,0.6009,0.6008,0.6025,0.6024,0.6094,0.6041,0.6041,0.6041,0.6041,0,0.5524,0.5566,0.5596,0.5627,0.5675,0.5694,0.5742,0.5763,0.5795,0.5831,0.5841,0.5874,0.5901,0.5938,0.5956,0.6007,0.6018,0.603,0.6034,0.6028,0.6027,0.6044,0.6041,0.6043,0.6042,0.6042,0.6042,0,0.5568,0.559,0.5645,0.5685,0.5696,0.573,0.5764,0.5795,0.5815,0.586,0.5872,0.5903,0.5948,0.5972,0.6029,0.6041,0.6097,0.61,0.6084,0.6085,0.6112,0.6109,0.6195,0.6207,0.6146,0.6147,0.6147,0,0.5604,0.5637,0.5679,0.5703,0.5724,0.5763,0.5789,0.5809,0.5836,0.588,0.5906,0.595,0.5987,0.6058,0.6087,0.613,0.6133,0.616,0.614,0.6133,0.6133,0.613,0.6133,0.6164,0.6165,0.6165,0.6165,0,0.5666,0.5674,0.5711,0.575,0.5781,0.5814,0.5846,0.5866,0.5891,0.5921,0.5965,0.5994,0.605,0.6095,0.614,0.6163,0.6169,0.6171,0.618,0.6175,0.6164,0.6169,0.6093,0.617,0.6169,0.6169,0.6169,0.6168,0.5706,0.5735,0.5769,0.5809,0.5835,0.5865,0.5895,0.5918,0.5955,0.6001,0.6011,0.6058,0.6095,0.6155,0.6179,0.6217,0.6212,0.6225,0.6228,0.6231,0.6231,0.6158,0.6226,0.6226,0.6225,0.6225,0.6225,0,0.5768,0.5789,0.5826,0.587,0.5902,0.5902,0.5938,0.5965,0.6005,0.6038,0.6073,0.6124,0.6166,0.6198,0.6241,0.6265,0.6269,0.6276,0.6274,0.6279,0.6234,0.6221,0.6272,0.6272,0.6272,0.6272,0.6272,0.6272,0.5803,0.5851,0.5864,0.5925,0.5948,0.5992,0.6012,0.604,0.6066,0.6121,0.6156,0.6175,0.6208,0.6253,0.6293,0.6301,0.6316,0.6323,0.6331,0.6288,0.6283,0.6278,0.6267,0.6326,0.6326,0.6374,0.6374,0.6375]},{"header":{"parameterUnit":"m.s-1","parameterCategory":1,"la1":30.2991,"la2":30.254,"lo1":-89.0895,"lo2":-89.0444,"dy":0.0017,"dx":0.0017,"nx":28,"ny":28,"refTime":"2025-08-02T21:00:00:Z","depth":0,"parameterNumber":3,"parameterNumberName":"V-component_of_WINDS"},"data":[0,0,0,0,0,0,0,0,0,0,0,0,0,0,0,0,0,0,0,0,0,0,0,0,0,0,0,0,0,0,0,0,0,0,0,0,0,0,0,0,0,0,0,0,0,0,0,0,0,0,0,0,0,0,0,0,0,0,0.1319,0.1319,0,0.1332,0.1332,0.1332,0.1363,0.1364,0.1364,0.1365,0.1378,0.1377,0.1377,0,0,0,0,0,0,0,0,0,0,0,0,0,0.1316,0.1316,0.1319,0.1319,0.1319,0.1332,0.1332,0.1332,0.1363,0.1364,0.1364,0.1365,0.1378,0.1377,0.1377,0,0,0,0,0,0,0,0,0,0,0,0,0,0.1322,0.1316,0.1319,0.1336,0.1337,0.1332,0.1332,0.1333,0.1363,0.1364,0.1365,0.1366,0.1378,0.1377,0.1377,0.1356,0,0,0.1376,0.1376,0,0,0,0,0,0,0,0,0.1322,0.1322,0.1333,0.1335,0.1336,0.1347,0.1336,0.134,0.1363,0.1353,0.1365,0.1366,0.1367,0.1367,0.1368,0.1356,0.1357,0.1376,0.1376,0.1376,0.1375,0,0,0,0,0,0,0,0.1321,0.1322,0.1324,0.1333,0.1335,0.1342,0.1344,0.1337,0.1354,0.1354,0.1356,0.1358,0.1368,0.1368,0.1368,0.1357,0.1376,0.1376,0.1375,0.1375,0.1326,0.1325,0,0,0,0,0,0,0.1319,0.1321,0.1324,0.1324,0.1331,0.1341,0.1343,0.1343,0.1355,0.1357,0.1357,0.1359,0.1368,0.1369,0.1369,0.1342,0.1376,0.1375,0.1375,0.1327,0.1326,0.1324,0,0,0,0,0,0,0.1319,0.1319,0.1323,0.1323,0.1325,0.134,0.1339,0.1342,0.1343,0.1357,0.136,0.1354,0.1369,0.1369,0.1358,0.1343,0.1375,0.1375,0.1328,0.1326,0.1325,0.1291,0,0,0,0,0,0,0.1318,0.1319,0.1312,0.1323,0.1324,0.1313,0.1338,0.1342,0.1342,0.1345,0.1355,0.1357,0.137,0.1359,0.1358,0.1343,0.1374,0.133,0.1327,0.1325,0.1293,0.1288,0.1284,0,0,0,0,0,0.1318,0.1302,0.1311,0.1311,0.1316,0.1312,0.1313,0.1328,0.1341,0.1333,0.1341,0.1357,0.1345,0.1357,0.1357,0.1342,0.133,0.1328,0.1326,0.1296,0.1289,0.1284,0,0,0,0,0,0,0.1289,0.1304,0.1314,0.1301,0.1305,0.1317,0.1308,0.1321,0.1321,0.1324,0.1342,0.1344,0.133,0.1335,0.1348,0.132,0.134,0.1337,0.1317,0.1312,0.1307,0.1306,0.1374,0,0,0,0,0,0.128,0.1277,0.129,0.1277,0.1279,0.1293,0.1292,0.1303,0.1307,0.1309,0.1317,0.132,0.1317,0.1315,0.1313,0.1294,0.1296,0.1284,0.1279,0.1275,0.1272,0.126,0.1254,0.1316,0.1316,0.1316,0,0,0.1264,0.1272,0.1268,0.1271,0.1276,0.127,0.1294,0.1288,0.1284,0.1308,0.1298,0.1303,0.1308,0.1292,0.1286,0.1296,0.1255,0.1272,0.1269,0.1268,0.1257,0.1251,0.1245,0.1315,0.1315,0.1315,0,0,0.123,0.1237,0.1225,0.1229,0.1235,0.1244,0.1241,0.1251,0.1255,0.1245,0.1262,0.1257,0.1252,0.1254,0.1254,0.1218,0.1231,0.1217,0.1192,0.1179,0.1174,0.117,0.1155,0.115,0.1214,0.1214,0.1214,0,0.1209,0.1202,0.1218,0.121,0.1209,0.1231,0.1218,0.1221,0.1226,0.1224,0.1236,0.1228,0.1233,0.1216,0.1207,0.1208,0.1203,0.1215,0.1174,0.117,0.1166,0.1152,0.1146,0.1212,0.1212,0.1212,0.1212,0,0.1174,0.1168,0.1158,0.1161,0.116,0.115,0.1163,0.116,0.117,0.1177,0.1165,0.1171,0.117,0.1167,0.1177,0.1151,0.1157,0.1171,0.1191,0.1158,0.1145,0.114,0.1209,0.121,0.121,0.1211,0,0,0.1123,0.1134,0.113,0.113,0.1137,0.1132,0.1122,0.112,0.1116,0.1118,0.1108,0.1102,0.1114,0.1114,0.1125,0.1114,0.1082,0.1129,0.113,0.1119,0.1051,0.1039,0.1033,0.1091,0.109,0.109,0.105,0,0.109,0.1074,0.1086,0.1067,0.106,0.1079,0.107,0.1072,0.1078,0.1073,0.108,0.1074,0.1092,0.1091,0.1082,0.1088,0.1068,0.1091,0.1081,0.108,0.1078,0.1026,0.1015,0.0977,0.1045,0.1044,0.1043,0,0.105,0.1049,0.1028,0.1034,0.1032,0.1023,0.1021,0.1016,0.1018,0.1023,0.1022,0.1034,0.1023,0.1043,0.1026,0.1041,0.1037,0.1039,0.1038,0.1037,0.1059,0.1022,0.0965,0.0959,0.1036,0.1037,0.1037,0,0.1012,0.1006,0.0992,0.0992,0.0999,0.0992,0.0994,0.0997,0.0994,0.0992,0.099,0.0987,0.0984,0.0981,0.0991,0.1005,0.0972,0.0994,0.0974,0.0974,0.0966,0.0966,0.0906,0.0966,0.0966,0.0966,0.0966,0,0.0974,0.096,0.0975,0.0967,0.0951,0.0965,0.0949,0.0953,0.0955,0.0946,0.0963,0.0954,0.0969,0.0961,0.0969,0.0953,0.0952,0.0954,0.0956,0.0952,0.0952,0.0949,0.0952,0.0964,0.0965,0.0965,0.0965,0,0.0929,0.0939,0.0925,0.0932,0.0933,0.0921,0.0926,0.0917,0.0923,0.0912,0.091,0.092,0.0912,0.0922,0.0915,0.092,0.0896,0.0903,0.0896,0.0897,0.0876,0.0877,0.0812,0.0803,0.0869,0.0869,0.0868,0,0.0904,0.0893,0.0898,0.0893,0.0894,0.0887,0.0883,0.0896,0.0891,0.0891,0.0882,0.0875,0.087,0.0855,0.0861,0.0855,0.086,0.0838,0.086,0.0855,0.0858,0.0858,0.0855,0.0833,0.0832,0.0832,0.0831,0,0.0856,0.086,0.0855,0.085,0.0845,0.0843,0.0841,0.0836,0.0849,0.0843,0.0834,0.083,0.0821,0.0813,0.0808,0.0809,0.0821,0.0824,0.0819,0.0814,0.0809,0.0809,0.0882,0.0825,0.0826,0.0826,0.0827,0.0827,0.0819,0.0809,0.081,0.0803,0.0802,0.0799,0.0791,0.0795,0.0788,0.0782,0.079,0.0778,0.0778,0.0772,0.0772,0.0762,0.0772,0.0765,0.0763,0.0761,0.0756,0.0811,0.0762,0.0762,0.0762,0.0762,0.0762,0,0.077,0.0771,0.0764,0.076,0.0753,0.0765,0.0763,0.0757,0.0746,0.0745,0.0739,0.0728,0.0719,0.0723,0.0716,0.0707,0.0712,0.0704,0.0704,0.0704,0.075,0.0754,0.07,0.07,0.07,0.07,0.07,0.07,0.0744,0.0727,0.0732,0.0714,0.0715,0.0704,0.0701,0.0698,0.0697,0.0683,0.0676,0.0679,0.0679,0.0671,0.0663,0.0664,0.066,0.0649,0.0652,0.0695,0.0701,0.0707,0.0711,0.0649,0.0649,0.0607,0.0607,0.0607]}]]